#timestamp,LO_Frequency,Hit,StdDev 
1649484015.6,286046999.8,N
1649484035.4,286046998.4,N
1649484055.2,286047002.7,N
1649484075.1,286047002.1,N
1649484076.0,286047002.1,N
1649484095.8,286046999.7,N
1649484115.7,286046998.5,N
1649484135.5,286046997.5,N
1649484155.3,286046995.3,N
1649484175.2,286046998.9,N
1649484195.0,286047001.1,N
1649484195.9,286047001.1,N
1649484215.8,286047001.2,N
1649484235.6,286046995.3,N
1649484255.4,286046995.9,N
1649484275.3,286046997.6,N
1649484295.1,286046997.6,N
1649484315.8,286046996.9,N
1649484335.7,286047000.8,N
1649484355.5,286047001.1,N
1649484375.4,286047002.4,N
1649484395.2,286047001.6,N
1649484415.0,286047001.9,N
1649484415.9,286047001.9,N
1649484435.8,286047002.6,N
1649484455.6,286047001.0,N
1649484475.4,286046998.6,N
1649484495.3,286047000.0,N
1649484515.1,286046998.5,N
1649484535.9,286046998.5,N
1649484555.7,286046998.9,N
1649484575.5,286047000.8,N
1649484595.4,286047002.8,N
1649484615.2,286046999.8,N
1649484635.0,286047000.2,N
1649484635.9,286047000.2,N
1649484655.8,286047001.9,N
1649484675.6,286047000.7,N
1649484695.5,286047000.0,N
1649484715.3,286047002.7,N
1649484735.1,286047000.3,N
1649484755.9,286046999.0,N
1649484775.7,286046998.3,N
1649484795.5,286047000.4,N
1649484815.4,286047000.2,N
1649484835.2,286047000.4,N
1649484855.1,286047001.6,N
1649484856.0,286047001.6,N
1649484875.8,286047001.4,N
1649484895.6,286047002.4,N
1649484915.5,286046999.7,N
1649484935.3,286047000.3,N
1649484955.1,286046998.3,N
1649484975.9,286046999.7,N
1649484995.7,286047000.1,N
1649485015.6,286047000.9,N
1649485035.4,286047000.0,N
1649485055.2,286046998.3,N
1649485075.1,286046999.0,N
1649485076.0,286046999.0,N
1649485095.8,286047000.4,N
1649485115.6,286047001.0,N
1649485135.5,286047000.4,N
1649485155.3,286047002.4,N
1649485175.2,286047002.1,N
1649485195.9,286047002.5,N
1649485215.7,286047002.7,N
1649485235.6,286047001.0,N
1649485255.4,286046999.7,N
1649485275.3,286047002.4,N
1649485295.1,286047001.8,N
1649485296.0,286047001.8,N
1649485315.8,286047003.9,N
1649485335.7,286047002.9,N
1649485355.5,286047005.6,Y
1649485375.4,286047003.1,P
1649485395.2,286047000.3,N
1649485415.0,286047002.7,N
1649485415.9,286047002.7,N
1649485435.8,286047002.4,N
1649485455.6,286047000.7,N
1649485475.5,286046996.8,Y
1649485495.3,286046995.0,P
1649485515.1,286046996.8,N
1649485535.9,286046997.7,N
1649485555.7,286046997.6,N
1649485575.5,286046995.0,N
1649485595.4,286046995.8,N
1649485615.2,286046995.3,N
1649485635.1,286046997.6,N
1649485636.0,286046997.6,N
1649485655.8,286046995.8,N
1649485675.6,286046998.0,N
1649485695.5,286046996.5,N
1649485745.3,286047000.4,E
1649485755.3,286047000.0,N
1649485775.1,286046998.3,P
1649485776.0,286046998.3,N
1649485795.8,286047000.1,N
1649485815.6,286046998.9,N
1649485835.5,286046998.6,N
1649485855.3,286046998.6,N
1649485875.2,286046995.1,Y
1649485895.9,286046996.8,P
1649485915.7,286046996.6,P
1649485935.6,286046995.7,P
1649485955.4,286046996.2,Y
1649485975.3,286047000.0,P
1649485995.1,286047001.5,N
1649485996.0,286047001.5,N
1649486015.8,286047002.6,N
1649486035.7,286047002.1,N
1649486055.5,286047002.7,N
1649486075.3,286047002.2,N
1649486095.2,286047002.1,N
1649486115.0,286047000.7,N
1649486115.9,286047000.7,N
1649486135.8,286047002.7,N
1649486155.6,286047001.4,N
1649486175.4,286047004.3,N
1649486195.3,286047003.8,N
1649486215.1,286047002.2,N
1649486235.9,286047002.3,N
1649486255.7,286047000.8,N
1649486275.5,286047002.4,N
1649486295.4,286047002.1,N
1649486315.2,286047003.1,N
1649486335.0,286047004.2,N
1649486335.9,286047004.2,N
1649486355.8,286047003.5,N
1649486375.6,286047004.1,N
1649486395.5,286047002.6,N
1649486415.3,286046999.7,N
1649486435.1,286047001.1,N
1649486455.9,286047000.7,N
1649486475.7,286047002.4,N
1649486495.5,286046998.1,N
1649486515.4,286046999.7,N
1649486535.2,286047004.3,N
1649486555.1,286047001.6,N
1649486556.0,286047001.6,N
1649486575.8,286046999.7,N
1649486595.6,286046999.8,N
1649486615.3,286047001.8,N
1649486635.2,286047002.4,N
1649486655.9,286047000.9,N
1649486675.7,286047001.1,N
1649486695.6,286047000.8,N
1649486715.4,286047000.3,N
1649486735.2,286047001.9,N
1649486755.1,286047004.1,N
1649486756.0,286047004.1,N
1649486775.8,286047004.4,N
1649486795.7,286047000.1,N
1649486815.5,286047002.6,N
1649486835.3,286047001.5,N
1649486855.2,286047003.3,N
1649486875.0,286047003.2,N
1649486875.9,286047003.2,N
1649486895.8,286047003.1,N
1649486915.6,286047003.0,N
1649486935.4,286047005.0,Y
1649486955.3,286047001.7,P
1649486975.1,286047004.2,P
1649486995.8,286047004.4,P
1649487015.7,286047005.9,Y
1649487035.5,286046999.3,P
1649487055.4,286046997.8,N
1649487075.2,286046998.0,N
1649487095.0,286046998.4,N
1649487095.9,286046998.4,N
1649487115.8,286046998.6,N
1649487165.6,286046999.4,E
1649487175.6,286046998.2,N
1649487195.4,286046998.4,P
1649487215.2,286046995.9,P
1649487235.1,286046994.1,Y
1649487236.0,286046994.1,P
1649487255.8,286046997.0,N
1649487275.7,286047000.5,N
1649487295.5,286047000.6,N
1649487315.3,286047000.2,N
1649487335.2,286047000.1,N
1649487355.0,286047002.5,N
1649487355.9,286047002.5,N
1649487375.8,286047001.3,N
1649487395.6,286047004.1,N
1649487415.4,286047003.6,N
1649487435.3,286047001.4,N
1649487455.1,286047003.7,N
1649487475.8,286047005.7,N
1649487495.7,286047004.8,N
1649487515.5,286047003.4,N
1649487535.4,286047002.5,N
1649487555.2,286047001.4,N
1649487575.0,286047002.0,N
1649487575.9,286047002.0,N
1649487595.8,286047002.1,N
